Retour au catalogue

STARLINK-32096

ActifCommunicationsVLEO
NORAD 59698·PAYLOAD·🇺🇸 United States

Lancé May 8, 2024 depuis Cape Canaveral Space Force Station

Loading…

Prochains Passages (prochaines 24 heures)

TLE

FraisSource: CelesTrak SupGP

Époque: Sep 15, 2026, 02:31 UTC

1 59698C 24086S   26258.10534722 -.00019346  00000+0 -70075-3 0  2588
2 59698  43.0022  70.1447 0001539 270.9477 359.9674 15.27585570    16

Suivez STARLINK-32096 en temps réel avec AllMySat

Download on the App Store